Location: Unspecified
(0.0000°N, 0.0000°E)
Time: 11:20:32
(UTC+00:00)

Courier 1B Rocket - Pass Details

Date: 24 November 2019
Orbit: 920 x 1202 km, 28.2° (Epoch: 13 December)

Event Time Altitude Azimuth Distance (km) Brightness Sun altitude
Rises 20:43:37 0° 298° (WNW) 4,046 8.6 -40.8°
Reaches altitude 10° 20:46:25 10° 297° (WNW) 3,104 7.9 -41.4°
Enters shadow 20:49:32 27° 295° (WNW) 2,108 6.9 -42.1°
